TimeMDT,TemperatureF,Dew PointF,Humidity,Sea Level PressureIn,VisibilityMPH,Wind Direction,Wind SpeedMPH,Gust SpeedMPH,PrecipitationIn,Events,Conditions,WindDirDegrees,DateUTC
12:46 AM,26.6,23.0,86,29.86,2.5,North,6.9,-,0.00,Snow,Light Snow,360,2013-03-22 06:46:00
12:56 AM,26.1,24.1,92,29.95,2.0,North,6.9,-,0.00,Snow,Light Snow,350,2013-03-22 06:56:00
1:34 AM,24.8,23.0,93,29.87,1.5,NNE,9.2,-,0.00,Snow,Light Snow,20,2013-03-22 07:34:00
1:45 AM,24.8,23.0,93,29.87,1.5,North,10.4,-,0.00,Snow,Light Snow,360,2013-03-22 07:45:00
1:56 AM,25.0,23.0,92,29.96,1.2,North,10.4,-,0.00,Snow,Light Snow,360,2013-03-22 07:56:00
2:34 AM,24.8,21.2,86,29.87,2.5,North,9.2,-,0.00,Snow,Light Snow,360,2013-03-22 08:34:00
2:50 AM,23.0,21.2,93,29.88,1.8,North,18.4,-,0.00,Snow,Light Snow,360,2013-03-22 08:50:00
2:56 AM,23.0,19.9,88,29.96,1.8,North,16.1,-,0.00,Snow,Light Snow,360,2013-03-22 08:56:00
2:58 AM,23.0,19.4,86,29.88,2.0,North,18.4,-,0.00,Snow,Light Snow,360,2013-03-22 08:58:00
3:07 AM,23.0,19.4,86,29.88,3.0,North,15.0,-,0.00,Snow,Light Snow,360,2013-03-22 09:07:00
3:21 AM,21.2,19.4,93,29.89,4.0,North,15.0,-,0.00,Snow,Light Snow,360,2013-03-22 09:21:00
3:53 AM,21.2,19.4,93,29.90,2.0,North,13.8,-,0.00,Snow,Light Snow,350,2013-03-22 09:53:00
3:56 AM,21.9,19.0,89,29.99,2.0,North,17.3,-,0.00,Snow,Light Snow,350,2013-03-22 09:56:00
4:40 AM,21.2,17.6,86,29.90,3.0,North,18.4,21.9,0.00,Snow,Light Snow,360,2013-03-22 10:40:00
4:56 AM,19.9,17.1,89,30.01,5.0,North,18.4,-,0.00,Snow,Light Snow,360,2013-03-22 10:56:00
5:14 AM,19.4,17.6,93,29.91,4.0,North,16.1,-,0.00,Snow,Light Snow,350,2013-03-22 11:14:00
5:39 AM,19.4,17.6,93,29.92,2.0,North,13.8,-,0.00,Snow,Light Snow,350,2013-03-22 11:39:00
5:49 AM,19.4,15.8,86,29.92,1.8,North,20.7,26.5,0.00,Snow,Light Snow,350,2013-03-22 11:49:00
5:56 AM,19.0,14.0,81,30.03,2.5,North,23.0,28.8,0.00,Snow,Light Snow,350,2013-03-22 11:56:00
6:04 AM,19.4,14.0,80,29.93,4.0,North,19.6,-,0.00,Snow,Light Snow,350,2013-03-22 12:04:00
6:21 AM,19.4,14.0,80,29.93,10.0,North,15.0,-,0.00,,Overcast,350,2013-03-22 12:21:00
6:56 AM,19.0,15.1,85,30.06,9.0,NNW,16.1,-,0.00,,Overcast,340,2013-03-22 12:56:00
7:56 AM,17.1,12.0,81,30.09,10.0,NNW,13.8,-,N/A,,Overcast,340,2013-03-22 13:56:00
8:56 AM,16.0,10.0,77,30.11,10.0,NNW,10.4,-,N/A,,Scattered Clouds,330,2013-03-22 14:56:00
9:56 AM,19.0,10.9,71,30.13,10.0,North,18.4,-,N/A,,Overcast,350,2013-03-22 15:56:00
10:56 AM,19.9,12.0,71,30.14,10.0,North,17.3,-,N/A,,Overcast,350,2013-03-22 16:56:00
11:37 AM,21.2,14.0,74,30.02,10.0,North,15.0,-,N/A,,Overcast,350,2013-03-22 17:37:00
11:56 AM,21.0,14.0,74,30.17,10.0,North,18.4,-,N/A,,Overcast,350,2013-03-22 17:56:00
12:56 PM,21.9,15.1,75,30.17,10.0,NNW,19.6,24.2,N/A,,Overcast,340,2013-03-22 18:56:00
1:56 PM,24.1,14.0,65,30.18,10.0,NNW,18.4,25.3,N/A,,Mostly Cloudy,340,2013-03-22 19:56:00
2:56 PM,25.0,14.0,63,30.19,10.0,North,18.4,-,N/A,,Mostly Cloudy,350,2013-03-22 20:56:00
3:52 PM,24.8,12.2,59,30.07,10.0,North,17.3,-,N/A,,Scattered Clouds,360,2013-03-22 21:52:00
3:56 PM,24.1,12.0,60,30.21,10.0,North,19.6,26.5,N/A,,Scattered Clouds,360,2013-03-22 21:56:00
4:03 PM,26.6,12.2,55,30.07,10.0,NNW,19.6,26.5,N/A,,Mostly Cloudy,340,2013-03-22 22:03:00
4:56 PM,25.0,10.9,55,30.22,10.0,North,20.7,25.3,N/A,,Mostly Cloudy,360,2013-03-22 22:56:00
5:10 PM,24.8,10.4,54,30.09,10.0,North,17.3,-,N/A,,Scattered Clouds,10,2013-03-22 23:10:00
5:56 PM,23.0,10.0,58,30.25,10.0,North,18.4,-,N/A,,Partly Cloudy,350,2013-03-22 23:56:00
6:56 PM,21.9,9.0,58,30.27,10.0,North,13.8,-,N/A,,Clear,350,2013-03-23 00:56:00
7:56 PM,18.0,8.1,65,30.30,10.0,NNW,9.2,-,N/A,,Clear,340,2013-03-23 01:56:00
8:56 PM,12.9,7.0,77,30.34,10.0,NW,6.9,-,N/A,,Clear,320,2013-03-23 02:56:00
9:56 PM,10.9,6.1,81,30.35,10.0,WNW,6.9,-,N/A,,Clear,300,2013-03-23 03:56:00
10:56 PM,12.0,6.1,77,30.35,10.0,WNW,8.1,-,N/A,,Clear,290,2013-03-23 04:56:00
11:56 PM,10.9,6.1,81,30.35,10.0,WNW,8.1,-,N/A,,Clear,300,2013-03-23 05:56:00